Tracking 19574 objects as of 16-Feb-2019
HD Live streaming from Space Station
objects crossing your sky now

BREEZE-M R/B

Track BREEZE-M R/B now!


NORAD ID: 37381
Int'l Code: 2008-006C
Perigee: 36,149.2 km
Apogee: 38,455.3 km
Inclination: 8.4 °
Period: 1,513.8 minutes
Semi major axis: 43673 km
RCS: 4.4823 m2 (large)
Launch date: February 11, 2008
Source: Commonwealth of Independent States (former USSR) (CIS)
Launch site: TYURATAM MISSILE AND SPACE COMPLEX (TTMTR)

Note: This is a ROCKET BODY
aabbcc
Your satellite tracking list
Your tracking list is empty




NASA's NSSDC Master Catalog

Two Line Element Set (TLE):
1 37381U 08006C   19046.76946241 -.00000191 +00000-0 +00000-0 0  9997
2 37381 008.4150 038.0300 0264012 247.0508 131.3020 00.95121720037475
Source of the keplerian elements: AFSPC